Location: St. Louis
(38.6270°N, 90.1994°W)
Time: 08:22:45
(UTC-06:00)

deb Explorer IX - Pass Details

Date: 07 December 2021
Orbit: 544 x 1082 km, 38.8° (Epoch: 19 January)

Event Time Altitude Azimuth Distance (km) Brightness Sun altitude
Rises 09:33:34 0° 253° (WSW) 3,260 ? 20.6°
Reaches altitude 10° 09:36:12 10° 252° (WSW) 2,240 ? 20.9°
Maximum altitude 09:41:22 76° 168° (SSE) 681 ? 21.4°
Drops below altitude 10° 09:45:50 10° 83° (E) 1,944 ? 21.9°
Sets 09:48:00 0° 81° (E) 2,795 ? 22.1°
